contact:dominique.lefevre@mio.osupytheas.fr, maurice.libes@osupytheas.fr, didier.mallarino@osupytheas.fr
Project:EMSO http://www.emso-fr.org/EMSO-France
Depth: 2436.0 m
Title:EMSO Ligure Ouest : Data MII capteur MICROCAT
DateTime_Computer,Latitude,Longitude,Temperature,Conductivity,Pressure,DateTime_Instrument
DateTime_Computer,Latitude,Longitude,degC,S m-1,dbar,DateTime_Instrument
2023-11-10T00:01:55Z,42.805,6.029,13.3038,4.60107,2470.74,2023-11-10T02:04:22Z
2023-11-10T00:04:58Z,42.805,6.029,13.3034,4.60109,2470.717,2023-11-10T02:07:25Z
2023-11-10T00:08:01Z,42.805,6.029,13.3035,4.60107,2470.73,2023-11-10T02:10:28Z
2023-11-10T00:11:04Z,42.805,6.029,13.3033,4.60107,2470.693,2023-11-10T02:13:31Z
2023-11-10T00:14:07Z,42.805,6.029,13.3035,4.60109,2470.717,2023-11-10T02:16:34Z
2023-11-10T00:17:10Z,42.805,6.029,13.3034,4.60106,2470.693,2023-11-10T02:19:37Z
2023-11-10T00:20:13Z,42.805,6.029,13.3033,4.60109,2470.717,2023-11-10T02:22:40Z
2023-11-10T00:23:16Z,42.805,6.029,13.3037,4.60108,2470.717,2023-11-10T02:25:43Z
2023-11-10T00:26:19Z,42.805,6.029,13.3037,4.60108,2470.717,2023-11-10T02:28:46Z
2023-11-10T00:29:23Z,42.805,6.029,13.3034,4.60110,2470.717,2023-11-10T02:31:49Z
2023-11-10T00:32:26Z,42.805,6.029,13.3039,4.60105,2470.717,2023-11-10T02:34:52Z
2023-11-10T00:35:29Z,42.805,6.029,13.3036,4.60106,2470.717,2023-11-10T02:37:55Z
2023-11-10T00:38:32Z,42.805,6.029,13.3034,4.60108,2470.67,2023-11-10T02:40:59Z
2023-11-10T00:41:35Z,42.805,6.029,13.3037,4.60106,2470.74,2023-11-10T02:44:02Z
2023-11-10T00:44:38Z,42.805,6.029,13.3036,4.60108,2470.73,2023-11-10T02:47:05Z
2023-11-10T00:47:41Z,42.805,6.029,13.3034,4.60106,2470.707,2023-11-10T02:50:08Z
2023-11-10T00:50:44Z,42.805,6.029,13.3036,4.60107,2470.717,2023-11-10T02:53:11Z
2023-11-10T00:53:47Z,42.805,6.029,13.3034,4.60110,2470.717,2023-11-10T02:56:14Z
2023-11-10T00:56:50Z,42.805,6.029,13.3034,4.60110,2470.67,2023-11-10T02:59:17Z
2023-11-10T00:59:53Z,42.805,6.029,13.3034,4.60106,2470.707,2023-11-10T03:02:20Z
2023-11-10T01:02:56Z,42.805,6.029,13.3038,4.60107,2470.73,2023-11-10T03:05:23Z
2023-11-10T01:06:00Z,42.805,6.029,13.3034,4.60108,2470.693,2023-11-10T03:08:26Z
2023-11-10T01:09:03Z,42.805,6.029,13.3037,4.60106,2470.707,2023-11-10T03:11:29Z
2023-11-10T01:12:06Z,42.805,6.029,13.3034,4.60107,2470.693,2023-11-10T03:14:32Z
2023-11-10T01:15:09Z,42.805,6.029,13.3036,4.60108,2470.717,2023-11-10T03:17:36Z
2023-11-10T01:18:12Z,42.805,6.029,13.3033,4.60107,2470.684,2023-11-10T03:20:39Z
2023-11-10T01:21:15Z,42.805,6.029,13.3037,4.60108,2470.73,2023-11-10T03:23:42Z
2023-11-10T01:24:18Z,42.805,6.029,13.3036,4.60110,2470.73,2023-11-10T03:26:45Z
2023-11-10T01:27:21Z,42.805,6.029,13.3034,4.60107,2470.74,2023-11-10T03:29:48Z
2023-11-10T01:30:24Z,42.805,6.029,13.3036,4.60109,2470.74,2023-11-10T03:32:51Z
2023-11-10T01:33:27Z,42.805,6.029,13.3035,4.60110,2470.717,2023-11-10T03:35:54Z
2023-11-10T01:36:30Z,42.805,6.029,13.3034,4.60110,2470.717,2023-11-10T03:38:57Z
2023-11-10T01:39:33Z,42.805,6.029,13.3033,4.60110,2470.717,2023-11-10T03:42:00Z
2023-11-10T01:42:37Z,42.805,6.029,13.3033,4.60110,2470.717,2023-11-10T03:45:03Z
2023-11-10T01:45:40Z,42.805,6.029,13.3037,4.60109,2470.74,2023-11-10T03:48:06Z
2023-11-10T01:48:43Z,42.805,6.029,13.3036,4.60108,2470.717,2023-11-10T03:51:09Z
2023-11-10T01:51:46Z,42.805,6.029,13.3036,4.60107,2470.717,2023-11-10T03:54:13Z
2023-11-10T01:54:49Z,42.805,6.029,13.3036,4.60109,2470.717,2023-11-10T03:57:16Z
2023-11-10T01:57:52Z,42.805,6.029,13.3036,4.60108,2470.73,2023-11-10T04:00:19Z
2023-11-10T02:00:55Z,42.805,6.029,13.3036,4.60110,2470.763,2023-11-10T04:03:22Z
2023-11-10T02:03:58Z,42.805,6.029,13.3039,4.60106,2470.74,2023-11-10T04:06:25Z
2023-11-10T02:07:01Z,42.805,6.029,13.3036,4.60109,2470.8,2023-11-10T04:09:28Z
2023-11-10T02:10:04Z,42.805,6.029,13.3034,4.60108,2470.717,2023-11-10T04:12:31Z
2023-11-10T02:13:07Z,42.805,6.029,13.3035,4.60111,2470.777,2023-11-10T04:15:34Z
2023-11-10T02:16:10Z,42.805,6.029,13.3033,4.60110,2470.754,2023-11-10T04:18:37Z
2023-11-10T02:19:14Z,42.805,6.029,13.3035,4.60108,2470.763,2023-11-10T04:21:40Z
2023-11-10T02:22:17Z,42.805,6.029,13.3036,4.60107,2470.717,2023-11-10T04:24:43Z
2023-11-10T02:25:20Z,42.805,6.029,13.3036,4.60109,2470.763,2023-11-10T04:27:46Z
2023-11-10T02:28:23Z,42.805,6.029,13.3036,4.60107,2470.717,2023-11-10T04:30:50Z
2023-11-10T02:31:26Z,42.805,6.029,13.3038,4.60109,2470.763,2023-11-10T04:33:53Z
2023-11-10T02:34:29Z,42.805,6.029,13.3036,4.60109,2470.763,2023-11-10T04:36:56Z
2023-11-10T02:37:32Z,42.805,6.029,13.3035,4.60107,2470.754,2023-11-10T04:39:59Z
2023-11-10T02:40:35Z,42.805,6.029,13.3036,4.60109,2470.754,2023-11-10T04:43:02Z
2023-11-10T02:43:38Z,42.805,6.029,13.3039,4.60110,2470.777,2023-11-10T04:46:05Z
2023-11-10T02:46:41Z,42.805,6.029,13.3035,4.60109,2470.74,2023-11-10T04:49:08Z
2023-11-10T02:49:44Z,42.805,6.029,13.3036,4.60108,2470.81,2023-11-10T04:52:11Z
2023-11-10T02:52:47Z,42.805,6.029,13.3036,4.60109,2470.74,2023-11-10T04:55:14Z
2023-11-10T02:55:51Z,42.805,6.029,13.3039,4.60107,2470.763,2023-11-10T04:58:17Z
2023-11-10T02:58:54Z,42.805,6.029,13.3036,4.60110,2470.777,2023-11-10T05:01:20Z
2023-11-10T03:01:57Z,42.805,6.029,13.3039,4.60112,2470.777,2023-11-10T05:04:23Z
2023-11-10T03:05:00Z,42.805,6.029,13.3035,4.60109,2470.787,2023-11-10T05:07:27Z
2023-11-10T03:08:03Z,42.805,6.029,13.3038,4.60110,2470.763,2023-11-10T05:10:30Z
2023-11-10T03:11:06Z,42.805,6.029,13.3037,4.60108,2470.763,2023-11-10T05:13:33Z
2023-11-10T03:14:09Z,42.805,6.029,13.3035,4.60110,2470.763,2023-11-10T05:16:36Z
2023-11-10T03:17:12Z,42.805,6.029,13.3035,4.60110,2470.763,2023-11-10T05:19:39Z
2023-11-10T03:20:15Z,42.805,6.029,13.3037,4.60110,2470.787,2023-11-10T05:22:42Z
2023-11-10T03:23:18Z,42.805,6.029,13.3041,4.60109,2470.787,2023-11-10T05:25:45Z
2023-11-10T03:26:21Z,42.805,6.029,13.3034,4.60109,2470.787,2023-11-10T05:28:48Z
2023-11-10T03:29:24Z,42.805,6.029,13.3038,4.60108,2470.8,2023-11-10T05:31:51Z
2023-11-10T03:32:28Z,42.805,6.029,13.3036,4.60110,2470.847,2023-11-10T05:34:54Z
2023-11-10T03:35:31Z,42.805,6.029,13.3035,4.60108,2470.81,2023-11-10T05:37:57Z
2023-11-10T03:38:34Z,42.805,6.029,13.3037,4.60109,2470.81,2023-11-10T05:41:00Z
2023-11-10T03:41:37Z,42.805,6.029,13.3036,4.60110,2470.833,2023-11-10T05:44:04Z
2023-11-10T03:44:40Z,42.805,6.029,13.3041,4.60110,2470.787,2023-11-10T05:47:07Z
2023-11-10T03:47:43Z,42.805,6.029,13.3040,4.60109,2470.8,2023-11-10T05:50:10Z
2023-11-10T03:50:46Z,42.805,6.029,13.3036,4.60110,2470.8,2023-11-10T05:53:13Z
2023-11-10T03:53:49Z,42.805,6.029,13.3034,4.60109,2470.8,2023-11-10T05:56:16Z
2023-11-10T03:56:52Z,42.805,6.029,13.3033,4.60110,2470.833,2023-11-10T05:59:19Z
2023-11-10T03:59:55Z,42.805,6.029,13.3033,4.60110,2470.787,2023-11-10T06:02:22Z
2023-11-10T04:02:58Z,42.805,6.029,13.3035,4.60112,2470.787,2023-11-10T06:05:25Z
2023-11-10T04:06:01Z,42.805,6.029,13.3036,4.60109,2470.81,2023-11-10T06:08:28Z
2023-11-10T04:09:05Z,42.805,6.029,13.3038,4.60110,2470.81,2023-11-10T06:11:31Z
2023-11-10T04:12:08Z,42.805,6.029,13.3036,4.60113,2470.824,2023-11-10T06:14:34Z
2023-11-10T04:15:11Z,42.805,6.029,13.3035,4.60110,2470.81,2023-11-10T06:17:37Z
2023-11-10T04:18:14Z,42.805,6.029,13.3036,4.60110,2470.787,2023-11-10T06:20:40Z
2023-11-10T04:21:17Z,42.805,6.029,13.3034,4.60110,2470.824,2023-11-10T06:23:44Z
2023-11-10T04:24:20Z,42.805,6.029,13.3036,4.60110,2470.833,2023-11-10T06:26:47Z
2023-11-10T04:27:23Z,42.805,6.029,13.3036,4.60110,2470.81,2023-11-10T06:29:50Z
2023-11-10T04:30:26Z,42.805,6.029,13.3039,4.60109,2470.81,2023-11-10T06:32:53Z
2023-11-10T04:33:29Z,42.805,6.029,13.3039,4.60110,2470.824,2023-11-10T06:35:56Z
2023-11-10T04:36:32Z,42.805,6.029,13.3036,4.60112,2470.824,2023-11-10T06:38:59Z
2023-11-10T04:39:35Z,42.805,6.029,13.3038,4.60111,2470.81,2023-11-10T06:42:02Z
2023-11-10T04:42:38Z,42.805,6.029,13.3038,4.60110,2470.81,2023-11-10T06:45:05Z
2023-11-10T04:45:41Z,42.805,6.029,13.3040,4.60110,2470.81,2023-11-10T06:48:08Z
2023-11-10T04:48:45Z,42.805,6.029,13.3036,4.60110,2470.833,2023-11-10T06:51:11Z
2023-11-10T04:51:48Z,42.805,6.029,13.3039,4.60110,2470.81,2023-11-10T06:54:14Z
2023-11-10T04:54:51Z,42.805,6.029,13.3036,4.60111,2470.81,2023-11-10T06:57:17Z
2023-11-10T04:57:54Z,42.805,6.029,13.3037,4.60111,2470.833,2023-11-10T07:00:21Z
2023-11-10T05:00:57Z,42.805,6.029,13.3036,4.60113,2470.833,2023-11-10T07:03:24Z
2023-11-10T05:04:00Z,42.805,6.029,13.3040,4.60110,2470.857,2023-11-10T07:06:27Z
2023-11-10T05:07:03Z,42.805,6.029,13.3041,4.60110,2470.847,2023-11-10T07:09:30Z
2023-11-10T05:10:06Z,42.805,6.029,13.3040,4.60114,2470.857,2023-11-10T07:12:33Z
2023-11-10T05:13:09Z,42.805,6.029,13.3039,4.60110,2470.833,2023-11-10T07:15:36Z
2023-11-10T05:16:12Z,42.805,6.029,13.3037,4.60111,2470.81,2023-11-10T07:18:39Z
2023-11-10T05:19:15Z,42.805,6.029,13.3040,4.60110,2470.833,2023-11-10T07:21:42Z
2023-11-10T05:22:18Z,42.805,6.029,13.3041,4.60110,2470.824,2023-11-10T07:24:45Z
2023-11-10T05:25:22Z,42.805,6.029,13.3039,4.60110,2470.81,2023-11-10T07:27:48Z
2023-11-10T05:28:25Z,42.805,6.029,13.3038,4.60110,2470.833,2023-11-10T07:30:51Z
2023-11-10T05:31:26Z,42.805,6.029,13.3043,4.60112,2470.796,2023-11-10T07:33:53Z
2023-11-10T05:34:29Z,42.805,6.029,13.3037,4.60111,2470.857,2023-11-10T07:36:56Z
2023-11-10T05:37:32Z,42.805,6.029,13.3039,4.60110,2470.833,2023-11-10T07:39:59Z
2023-11-10T05:40:35Z,42.805,6.029,13.3038,4.60110,2470.81,2023-11-10T07:43:02Z
2023-11-10T05:43:38Z,42.805,6.029,13.3035,4.60110,2470.833,2023-11-10T07:46:05Z
2023-11-10T05:46:42Z,42.805,6.029,13.3036,4.60110,2470.833,2023-11-10T07:49:08Z
2023-11-10T05:49:45Z,42.805,6.029,13.3036,4.60110,2470.81,2023-11-10T07:52:11Z
2023-11-10T05:52:48Z,42.805,6.029,13.3043,4.60110,2470.833,2023-11-10T07:55:14Z
2023-11-10T05:55:51Z,42.805,6.029,13.3036,4.60109,2470.847,2023-11-10T07:58:18Z
2023-11-10T05:58:54Z,42.805,6.029,13.3041,4.60112,2470.81,2023-11-10T08:01:21Z
2023-11-10T06:01:57Z,42.805,6.029,13.3036,4.60111,2470.787,2023-11-10T08:04:24Z
2023-11-10T06:05:00Z,42.805,6.029,13.3040,4.60110,2470.833,2023-11-10T08:07:27Z
2023-11-10T06:08:03Z,42.805,6.029,13.3037,4.60110,2470.847,2023-11-10T08:10:30Z
2023-11-10T06:11:06Z,42.805,6.029,13.3036,4.60110,2470.787,2023-11-10T08:13:33Z
2023-11-10T06:14:09Z,42.805,6.029,13.3039,4.60109,2470.847,2023-11-10T08:16:36Z
2023-11-10T06:17:12Z,42.805,6.029,13.3038,4.60110,2470.833,2023-11-10T08:19:39Z
2023-11-10T06:20:15Z,42.805,6.029,13.3039,4.60110,2470.81,2023-11-10T08:22:42Z
2023-11-10T06:23:19Z,42.805,6.029,13.3038,4.60112,2470.847,2023-11-10T08:25:45Z
2023-11-10T06:26:22Z,42.805,6.029,13.3039,4.60111,2470.833,2023-11-10T08:28:48Z
2023-11-10T06:29:25Z,42.805,6.029,13.3036,4.60111,2470.847,2023-11-10T08:31:51Z
2023-11-10T06:32:28Z,42.805,6.029,13.3038,4.60110,2470.833,2023-11-10T08:34:55Z
2023-11-10T06:35:31Z,42.805,6.029,13.3039,4.60111,2470.81,2023-11-10T08:37:58Z
2023-11-10T06:38:34Z,42.805,6.029,13.3036,4.60110,2470.871,2023-11-10T08:41:01Z
2023-11-10T06:41:37Z,42.805,6.029,13.3039,4.60110,2470.81,2023-11-10T08:44:04Z
2023-11-10T06:44:40Z,42.805,6.029,13.3037,4.60111,2470.81,2023-11-10T08:47:07Z
2023-11-10T06:47:43Z,42.805,6.029,13.3040,4.60110,2470.833,2023-11-10T08:50:10Z
2023-11-10T06:50:46Z,42.805,6.029,13.3041,4.60110,2470.857,2023-11-10T08:53:13Z
2023-11-10T06:53:49Z,42.805,6.029,13.3039,4.60110,2470.81,2023-11-10T08:56:16Z
2023-11-10T06:56:52Z,42.805,6.029,13.3036,4.60109,2470.847,2023-11-10T08:59:19Z
2023-11-10T06:59:56Z,42.805,6.029,13.3040,4.60112,2470.81,2023-11-10T09:02:22Z
2023-11-10T07:02:59Z,42.805,6.029,13.3039,4.60110,2470.81,2023-11-10T09:05:25Z
2023-11-10T07:06:02Z,42.805,6.029,13.3039,4.60110,2470.81,2023-11-10T09:08:28Z
2023-11-10T07:09:05Z,42.805,6.029,13.3044,4.60109,2470.847,2023-11-10T09:11:32Z
2023-11-10T07:12:08Z,42.805,6.029,13.3038,4.60111,2470.81,2023-11-10T09:14:35Z
2023-11-10T07:15:11Z,42.805,6.029,13.3043,4.60110,2470.81,2023-11-10T09:17:38Z
2023-11-10T07:18:14Z,42.805,6.029,13.3041,4.60112,2470.81,2023-11-10T09:20:41Z
2023-11-10T07:21:17Z,42.805,6.029,13.3041,4.60110,2470.787,2023-11-10T09:23:44Z
2023-11-10T07:24:20Z,42.805,6.029,13.3041,4.60110,2470.787,2023-11-10T09:26:47Z
2023-11-10T07:27:23Z,42.805,6.029,13.3039,4.60112,2470.81,2023-11-10T09:29:50Z
2023-11-10T07:30:26Z,42.805,6.029,13.3040,4.60110,2470.833,2023-11-10T09:32:53Z
2023-11-10T07:33:29Z,42.805,6.029,13.3039,4.60110,2470.81,2023-11-10T09:35:56Z
2023-11-10T07:36:33Z,42.805,6.029,13.3041,4.60112,2470.847,2023-11-10T09:38:59Z
2023-11-10T07:39:36Z,42.805,6.029,13.3044,4.60110,2470.787,2023-11-10T09:42:02Z
2023-11-10T07:42:39Z,42.805,6.029,13.3041,4.60114,2470.8,2023-11-10T09:45:06Z
2023-11-10T07:45:42Z,42.805,6.029,13.3040,4.60113,2470.833,2023-11-10T09:48:09Z
2023-11-10T07:48:45Z,42.805,6.029,13.3036,4.60114,2470.824,2023-11-10T09:51:12Z
2023-11-10T07:51:48Z,42.805,6.029,13.3037,4.60113,2470.74,2023-11-10T09:54:15Z
2023-11-10T07:54:51Z,42.805,6.029,13.3036,4.60111,2470.8,2023-11-10T09:57:18Z
2023-11-10T07:57:54Z,42.805,6.029,13.3036,4.60111,2470.787,2023-11-10T10:00:21Z
2023-11-10T08:00:57Z,42.805,6.029,13.3040,4.60111,2470.787,2023-11-10T10:03:24Z
2023-11-10T08:04:00Z,42.805,6.029,13.3039,4.60110,2470.763,2023-11-10T10:06:27Z
2023-11-10T08:07:03Z,42.805,6.029,13.3039,4.60111,2470.773,2023-11-10T10:09:30Z
2023-11-10T08:10:07Z,42.805,6.029,13.3043,4.60110,2470.777,2023-11-10T10:12:33Z
2023-11-10T08:13:10Z,42.805,6.029,13.3039,4.60112,2470.787,2023-11-10T10:15:36Z
2023-11-10T08:16:13Z,42.805,6.029,13.3039,4.60111,2470.787,2023-11-10T10:18:39Z
2023-11-10T08:19:16Z,42.805,6.029,13.3036,4.60112,2470.777,2023-11-10T10:21:43Z
2023-11-10T08:22:19Z,42.805,6.029,13.3037,4.60112,2470.777,2023-11-10T10:24:46Z
2023-11-10T08:25:22Z,42.805,6.029,13.3041,4.60113,2470.8,2023-11-10T10:27:49Z
2023-11-10T08:28:25Z,42.805,6.029,13.3039,4.60111,2470.763,2023-11-10T10:30:52Z
2023-11-10T08:31:28Z,42.805,6.029,13.3040,4.60112,2470.763,2023-11-10T10:33:55Z
2023-11-10T08:34:31Z,42.805,6.029,13.3038,4.60112,2470.8,2023-11-10T10:36:58Z
2023-11-10T08:37:34Z,42.805,6.029,13.3039,4.60112,2470.763,2023-11-10T10:40:01Z
2023-11-10T08:40:37Z,42.805,6.029,13.3041,4.60110,2470.763,2023-11-10T10:43:04Z
2023-11-10T08:43:40Z,42.805,6.029,13.3039,4.60112,2470.763,2023-11-10T10:46:07Z
2023-11-10T08:46:44Z,42.805,6.029,13.3039,4.60113,2470.717,2023-11-10T10:49:10Z
2023-11-10T08:49:47Z,42.805,6.029,13.3039,4.60113,2470.754,2023-11-10T10:52:13Z
2023-11-10T08:52:50Z,42.805,6.029,13.3039,4.60112,2470.74,2023-11-10T10:55:17Z
2023-11-10T08:55:53Z,42.805,6.029,13.3037,4.60112,2470.763,2023-11-10T10:58:20Z
2023-11-10T08:58:56Z,42.805,6.029,13.3038,4.60116,2470.763,2023-11-10T11:01:23Z
2023-11-10T09:01:59Z,42.805,6.029,13.3039,4.60116,2470.74,2023-11-10T11:04:26Z
2023-11-10T09:05:02Z,42.805,6.029,13.3041,4.60113,2470.74,2023-11-10T11:07:29Z
2023-11-10T09:08:05Z,42.805,6.029,13.3039,4.60113,2470.74,2023-11-10T11:10:32Z
2023-11-10T09:11:08Z,42.805,6.029,13.3041,4.60114,2470.777,2023-11-10T11:13:35Z
2023-11-10T09:14:11Z,42.805,6.029,13.3041,4.60114,2470.74,2023-11-10T11:16:38Z
2023-11-10T09:17:14Z,42.805,6.029,13.3038,4.60110,2470.74,2023-11-10T11:19:41Z
2023-11-10T09:20:18Z,42.805,6.029,13.3041,4.60116,2470.74,2023-11-10T11:22:44Z
2023-11-10T09:23:21Z,42.805,6.029,13.3038,4.60112,2470.763,2023-11-10T11:25:47Z
2023-11-10T09:26:24Z,42.805,6.029,13.3037,4.60114,2470.754,2023-11-10T11:28:51Z
2023-11-10T09:29:27Z,42.805,6.029,13.3041,4.60114,2470.74,2023-11-10T11:31:54Z
2023-11-10T09:32:30Z,42.805,6.029,13.3038,4.60115,2470.763,2023-11-10T11:34:57Z
2023-11-10T09:35:33Z,42.805,6.029,13.3036,4.60112,2470.74,2023-11-10T11:38:00Z
2023-11-10T09:38:36Z,42.805,6.029,13.3036,4.60118,2470.763,2023-11-10T11:41:03Z
2023-11-10T09:41:39Z,42.805,6.029,13.3040,4.60115,2470.744,2023-11-10T11:44:06Z
2023-11-10T09:44:42Z,42.805,6.029,13.3038,4.60115,2470.777,2023-11-10T11:47:09Z
2023-11-10T09:47:45Z,42.805,6.029,13.3041,4.60114,2470.74,2023-11-10T11:50:12Z
2023-11-10T09:50:48Z,42.805,6.029,13.3038,4.60114,2470.717,2023-11-10T11:53:15Z
2023-11-10T09:53:52Z,42.805,6.029,13.3039,4.60113,2470.754,2023-11-10T11:56:18Z
2023-11-10T09:56:55Z,42.805,6.029,13.3042,4.60116,2470.717,2023-11-10T11:59:21Z
2023-11-10T09:59:58Z,42.805,6.029,13.3038,4.60116,2470.73,2023-11-10T12:02:24Z
2023-11-10T10:03:01Z,42.805,6.029,13.3042,4.60116,2470.74,2023-11-10T12:05:28Z
2023-11-10T10:06:04Z,42.805,6.029,13.3043,4.60117,2470.74,2023-11-10T12:08:31Z
2023-11-10T10:09:07Z,42.805,6.029,13.3040,4.60116,2470.717,2023-11-10T12:11:34Z
2023-11-10T10:12:10Z,42.805,6.029,13.3041,4.60118,2470.703,2023-11-10T12:14:37Z
2023-11-10T10:15:13Z,42.805,6.029,13.3041,4.60114,2470.754,2023-11-10T12:17:40Z
2023-11-10T10:18:16Z,42.805,6.029,13.3040,4.60117,2470.74,2023-11-10T12:20:43Z
2023-11-10T10:21:19Z,42.805,6.029,13.3041,4.60119,2470.717,2023-11-10T12:23:46Z
2023-11-10T10:24:22Z,42.805,6.029,13.3036,4.60112,2470.717,2023-11-10T12:26:49Z
2023-11-10T10:27:25Z,42.805,6.029,13.3039,4.60117,2470.73,2023-11-10T12:29:52Z
2023-11-10T10:30:29Z,42.805,6.029,13.3038,4.60115,2470.703,2023-11-10T12:32:55Z
2023-11-10T10:33:32Z,42.805,6.029,13.3037,4.60113,2470.717,2023-11-10T12:35:58Z
2023-11-10T10:36:35Z,42.805,6.029,13.3040,4.60119,2470.74,2023-11-10T12:39:02Z
2023-11-10T10:39:38Z,42.805,6.029,13.3041,4.60116,2470.717,2023-11-10T12:42:05Z
2023-11-10T10:42:41Z,42.805,6.029,13.3036,4.60116,2470.754,2023-11-10T12:45:08Z
2023-11-10T10:45:44Z,42.805,6.029,13.3040,4.60117,2470.717,2023-11-10T12:48:11Z
2023-11-10T10:48:47Z,42.805,6.029,13.3041,4.60115,2470.717,2023-11-10T12:51:14Z
2023-11-10T10:51:50Z,42.805,6.029,13.3039,4.60116,2470.74,2023-11-10T12:54:17Z
2023-11-10T10:54:53Z,42.805,6.029,13.3039,4.60117,2470.717,2023-11-10T12:57:20Z
2023-11-10T10:57:56Z,42.805,6.029,13.3041,4.60112,2470.717,2023-11-10T13:00:23Z
2023-11-10T11:00:59Z,42.805,6.029,13.3039,4.60112,2470.693,2023-11-10T13:03:26Z
2023-11-10T11:04:03Z,42.805,6.029,13.3039,4.60113,2470.717,2023-11-10T13:06:29Z
2023-11-10T11:07:06Z,42.805,6.029,13.3039,4.60116,2470.717,2023-11-10T13:09:32Z
2023-11-10T11:10:09Z,42.805,6.029,13.3038,4.60114,2470.73,2023-11-10T13:12:35Z
2023-11-10T11:13:12Z,42.805,6.029,13.3037,4.60112,2470.717,2023-11-10T13:15:39Z
2023-11-10T11:16:15Z,42.805,6.029,13.3039,4.60112,2470.717,2023-11-10T13:18:42Z
2023-11-10T11:19:18Z,42.805,6.029,13.3039,4.60112,2470.73,2023-11-10T13:21:45Z
2023-11-10T11:22:21Z,42.805,6.029,13.3040,4.60112,2470.717,2023-11-10T13:24:48Z
2023-11-10T11:25:24Z,42.805,6.029,13.3040,4.60113,2470.693,2023-11-10T13:27:51Z
2023-11-10T11:28:27Z,42.805,6.029,13.3041,4.60114,2470.74,2023-11-10T13:30:54Z
2023-11-10T11:31:30Z,42.805,6.029,13.3038,4.60113,2470.693,2023-11-10T13:33:57Z
2023-11-10T11:34:33Z,42.805,6.029,13.3041,4.60112,2470.693,2023-11-10T13:37:00Z
2023-11-10T11:37:37Z,42.805,6.029,13.3039,4.60112,2470.73,2023-11-10T13:40:03Z
2023-11-10T11:40:40Z,42.805,6.029,13.3037,4.60112,2470.684,2023-11-10T13:43:06Z
2023-11-10T11:43:43Z,42.805,6.029,13.3041,4.60113,2470.693,2023-11-10T13:46:09Z
2023-11-10T11:46:46Z,42.805,6.029,13.3043,4.60112,2470.717,2023-11-10T13:49:13Z
2023-11-10T11:49:49Z,42.805,6.029,13.3040,4.60112,2470.693,2023-11-10T13:52:16Z
2023-11-10T11:52:52Z,42.805,6.029,13.3038,4.60111,2470.693,2023-11-10T13:55:19Z
2023-11-10T11:55:55Z,42.805,6.029,13.3042,4.60111,2470.684,2023-11-10T13:58:22Z
2023-11-10T11:58:58Z,42.805,6.029,13.3039,4.60113,2470.717,2023-11-10T14:01:25Z
2023-11-10T12:02:01Z,42.805,6.029,13.3039,4.60111,2470.693,2023-11-10T14:04:28Z
2023-11-10T12:05:04Z,42.805,6.029,13.3042,4.60112,2470.693,2023-11-10T14:07:31Z
2023-11-10T12:08:07Z,42.805,6.029,13.3041,4.60113,2470.717,2023-11-10T14:10:34Z
2023-11-10T12:11:10Z,42.805,6.029,13.3039,4.60112,2470.67,2023-11-10T14:13:37Z
2023-11-10T12:14:14Z,42.805,6.029,13.3037,4.60112,2470.684,2023-11-10T14:16:40Z
2023-11-10T12:17:17Z,42.805,6.029,13.3036,4.60112,2470.684,2023-11-10T14:19:43Z
2023-11-10T12:20:20Z,42.805,6.029,13.3041,4.60111,2470.693,2023-11-10T14:22:47Z
2023-11-10T12:23:23Z,42.805,6.029,13.3038,4.60113,2470.707,2023-11-10T14:25:50Z
2023-11-10T12:26:26Z,42.805,6.029,13.3040,4.60112,2470.693,2023-11-10T14:28:53Z
2023-11-10T12:29:29Z,42.805,6.029,13.3038,4.60114,2470.693,2023-11-10T14:31:56Z
2023-11-10T12:32:32Z,42.805,6.029,13.3036,4.60114,2470.73,2023-11-10T14:34:59Z
2023-11-10T12:35:35Z,42.805,6.029,13.3040,4.60114,2470.693,2023-11-10T14:38:02Z
2023-11-10T12:38:38Z,42.805,6.029,13.3040,4.60112,2470.707,2023-11-10T14:41:05Z
2023-11-10T12:41:41Z,42.805,6.029,13.3037,4.60113,2470.693,2023-11-10T14:44:08Z
2023-11-10T12:44:44Z,42.805,6.029,13.3039,4.60117,2470.684,2023-11-10T14:47:11Z
2023-11-10T12:47:48Z,42.805,6.029,13.3043,4.60112,2470.73,2023-11-10T14:50:14Z
2023-11-10T12:50:51Z,42.805,6.029,13.3040,4.60113,2470.693,2023-11-10T14:53:17Z
2023-11-10T12:53:54Z,42.805,6.029,13.3039,4.60115,2470.73,2023-11-10T14:56:20Z
2023-11-10T12:56:57Z,42.805,6.029,13.3043,4.60112,2470.717,2023-11-10T14:59:24Z
2023-11-10T13:00:00Z,42.805,6.029,13.3036,4.60114,2470.717,2023-11-10T15:02:27Z
2023-11-10T13:03:03Z,42.805,6.029,13.3041,4.60115,2470.73,2023-11-10T15:05:30Z
2023-11-10T13:06:06Z,42.805,6.029,13.3037,4.60112,2470.74,2023-11-10T15:08:33Z
2023-11-10T13:09:09Z,42.805,6.029,13.3039,4.60112,2470.679,2023-11-10T15:11:36Z
2023-11-10T13:12:12Z,42.805,6.029,13.3039,4.60112,2470.693,2023-11-10T15:14:39Z
2023-11-10T13:15:15Z,42.805,6.029,13.3038,4.60112,2470.693,2023-11-10T15:17:42Z
2023-11-10T13:18:18Z,42.805,6.029,13.3036,4.60112,2470.707,2023-11-10T15:20:45Z
2023-11-10T13:21:21Z,42.805,6.029,13.3043,4.60111,2470.717,2023-11-10T15:23:48Z
2023-11-10T13:24:25Z,42.805,6.029,13.3038,4.60110,2470.717,2023-11-10T15:26:51Z
2023-11-10T13:27:28Z,42.805,6.029,13.3040,4.60112,2470.693,2023-11-10T15:29:54Z
2023-11-10T13:30:32Z,42.805,6.029,13.3038,4.60115,2470.717,2023-11-10T15:32:59Z
2023-11-10T13:33:35Z,42.805,6.029,13.3040,4.60114,2470.74,2023-11-10T15:36:02Z
2023-11-10T13:36:38Z,42.805,6.029,13.3041,4.60121,2470.73,2023-11-10T15:39:05Z
2023-11-10T13:39:41Z,42.805,6.029,13.3036,4.60115,2470.707,2023-11-10T15:42:08Z
2023-11-10T13:42:44Z,42.805,6.029,13.3040,4.60114,2470.717,2023-11-10T15:45:11Z
2023-11-10T13:45:47Z,42.805,6.029,13.3037,4.60113,2470.74,2023-11-10T15:48:14Z
2023-11-10T13:48:50Z,42.805,6.029,13.3040,4.60122,2470.763,2023-11-10T15:51:17Z
2023-11-10T13:51:53Z,42.805,6.029,13.3039,4.60113,2470.717,2023-11-10T15:54:20Z
2023-11-10T13:54:57Z,42.805,6.029,13.3037,4.60114,2470.777,2023-11-10T15:57:23Z
2023-11-10T13:58:00Z,42.805,6.029,13.3036,4.60119,2470.74,2023-11-10T16:00:26Z
2023-11-10T14:01:03Z,42.805,6.029,13.3041,4.60112,2470.74,2023-11-10T16:03:30Z
2023-11-10T14:04:06Z,42.805,6.029,13.3036,4.60113,2470.717,2023-11-10T16:06:33Z
2023-11-10T14:07:09Z,42.805,6.029,13.3039,4.60112,2470.777,2023-11-10T16:09:36Z
2023-11-10T14:10:12Z,42.805,6.029,13.3041,4.60116,2470.726,2023-11-10T16:12:39Z
2023-11-10T14:13:15Z,42.805,6.029,13.3039,4.60117,2470.717,2023-11-10T16:15:42Z
2023-11-10T14:16:18Z,42.805,6.029,13.3038,4.60112,2470.74,2023-11-10T16:18:45Z
2023-11-10T14:19:21Z,42.805,6.029,13.3039,4.60118,2470.763,2023-11-10T16:21:48Z
2023-11-10T14:22:24Z,42.805,6.029,13.3036,4.60117,2470.717,2023-11-10T16:24:51Z
2023-11-10T14:25:27Z,42.805,6.029,13.3040,4.60117,2470.717,2023-11-10T16:27:54Z
2023-11-10T14:28:30Z,42.805,6.029,13.3039,4.60115,2470.74,2023-11-10T16:30:57Z
2023-11-10T14:31:34Z,42.805,6.029,13.3039,4.60112,2470.763,2023-11-10T16:34:00Z
2023-11-10T14:34:37Z,42.805,6.029,13.3036,4.60114,2470.763,2023-11-10T16:37:03Z
2023-11-10T14:37:40Z,42.805,6.029,13.3043,4.60111,2470.74,2023-11-10T16:40:07Z
2023-11-10T14:40:43Z,42.805,6.029,13.3036,4.60112,2470.763,2023-11-10T16:43:10Z
2023-11-10T14:43:46Z,42.805,6.029,13.3040,4.60111,2470.787,2023-11-10T16:46:13Z
2023-11-10T14:46:49Z,42.805,6.029,13.3041,4.60111,2470.763,2023-11-10T16:49:16Z
2023-11-10T14:49:52Z,42.805,6.029,13.3043,4.60112,2470.763,2023-11-10T16:52:19Z
2023-11-10T14:52:55Z,42.805,6.029,13.3041,4.60114,2470.787,2023-11-10T16:55:22Z
2023-11-10T14:55:58Z,42.805,6.029,13.3041,4.60112,2470.763,2023-11-10T16:58:25Z
2023-11-10T14:59:01Z,42.805,6.029,13.3040,4.60112,2470.763,2023-11-10T17:01:28Z
2023-11-10T15:02:04Z,42.805,6.029,13.3043,4.60113,2470.777,2023-11-10T17:04:31Z